Hourly Weather Bolshie Shapy

Today, 15 June, Tuesday

Time Temperature Precipitation Wind Pressure Humidity
00:00 +18°C° 0 mm 1 mps 750 mmHg 90%
01:00 +16°C° 0 mm 1 mps 750 mmHg 91%
02:00 +16°C° 0 mm 1 mps 750 mmHg 91%
03:00 +15°C° 0 mm 0 mps 750 mmHg 92%
04:00 +16°C° 0 mm 0 mps 750 mmHg 89%
05:00 +17°C° 0 mm 0 mps 751 mmHg 85%
06:00 +18°C° 0 mm 0 mps 751 mmHg 82%
07:00 +20°C° 0 mm 0 mps 751 mmHg 74%
08:00 +22°C° 0 mm 0 mps 751 mmHg 65%
09:00 +24°C° 0 mm 0 mps 751 mmHg 58%
10:00 +27°C° 0 mm 1 mps 750 mmHg 53%
11:00 +28°C° 0 mm 1 mps 750 mmHg 49%
12:00 +29°C° 0 mm 2 mps 750 mmHg 44%
13:00 +27°C° 0.2 mm 2 mps 750 mmHg 54%
14:00 +25°C° 0.2 mm 3 mps 750 mmHg 64%
15:00 +22°C° 0.2 mm 3 mps 749 mmHg 74%
16:00 +22°C° 0.3 mm 3 mps 749 mmHg 75%
17:00 +23°C° 0.3 mm 2 mps 749 mmHg 76%
18:00 +23°C° 0.3 mm 2 mps 749 mmHg 78%
19:00 +20°C° 0 mm 2 mps 749 mmHg 82%
20:00 +19°C° 0 mm 2 mps 749 mmHg 87%
21:00 +18°C° 0 mm 2 mps 749 mmHg 91%
22:00 +17°C° 0 mm 2 mps 748 mmHg 90%
23:00 +18°C° 0 mm 1 mps 748 mmHg 89%

Tomorrow, 16 June, Wednesday

Time Temperature Precipitation Wind Pressure Humidity
00:00 +18°C° 0 mm 1 mps 748 mmHg 88%
01:00 +18°C° 0 mm 1 mps 748 mmHg 90%
02:00 +16°C° 0 mm 1 mps 748 mmHg 92%
03:00 +16°C° 0 mm 1 mps 747 mmHg 94%
04:00 +18°C° 0 mm 1 mps 747 mmHg 89%
05:00 +20°C° 0 mm 1 mps 747 mmHg 85%
06:00 +21°C° 0 mm 1 mps 747 mmHg 81%
07:00 +23°C° 0 mm 1 mps 747 mmHg 72%
08:00 +25°C° 0 mm 1 mps 746 mmHg 63%
09:00 +27°C° 0 mm 1 mps 746 mmHg 54%
10:00 +28°C° 0 mm 1 mps 746 mmHg 50%
11:00 +29°C° 0 mm 1 mps 745 mmHg 47%
12:00 +30°C° 0 mm 1 mps 745 mmHg 44%
13:00 +30°C° 0 mm 2 mps 745 mmHg 45%
14:00 +30°C° 0 mm 3 mps 745 mmHg 46%
15:00 +30°C° 0 mm 3 mps 744 mmHg 47%
16:00 +27°C° 1.5 mm 3 mps 745 mmHg 60%
17:00 +24°C° 1.5 mm 3 mps 745 mmHg 72%
18:00 +20°C° 1.5 mm 3 mps 746 mmHg 84%
19:00 +19°C° 0.1 mm 3 mps 746 mmHg 86%
20:00 +18°C° 0.1 mm 3 mps 747 mmHg 88%
21:00 +17°C° 0.1 mm 3 mps 747 mmHg 90%
22:00 +16°C° 0 mm 3 mps 748 mmHg 91%
23:00 +15°C° 0 mm 2 mps 748 mmHg 93%

Day after tomorrow, 17 June, Thursday

Time Temperature Precipitation Wind Pressure Humidity
00:00 +14°C° 0 mm 2 mps 749 mmHg 94%
01:00 +13°C° 0 mm 2 mps 749 mmHg 93%
02:00 +13°C° 0 mm 2 mps 750 mmHg 92%
03:00 +12°C° 0 mm 2 mps 750 mmHg 92%
04:00 +13°C° 0 mm 2 mps 751 mmHg 86%
05:00 +14°C° 0 mm 2 mps 751 mmHg 81%
06:00 +15°C° 0 mm 1 mps 752 mmHg 76%
07:00 +17°C° 0 mm 2 mps 752 mmHg 67%
08:00 +19°C° 0 mm 2 mps 752 mmHg 57%
09:00 +21°C° 0 mm 2 mps 752 mmHg 48%
10:00 +21°C° 0 mm 3 mps 752 mmHg 44%
11:00 +22°C° 0 mm 3 mps 753 mmHg 40%
12:00 +24°C° 0 mm 3 mps 753 mmHg 36%
13:00 +23°C° 0 mm 4 mps 753 mmHg 36%
14:00 +23°C° 0 mm 4 mps 753 mmHg 37%
15:00 +23°C° 0 mm 4 mps 753 mmHg 37%
16:00 +22°C° 0 mm 4 mps 753 mmHg 43%
17:00 +21°C° 0 mm 3 mps 753 mmHg 50%
18:00 +21°C° 0 mm 3 mps 754 mmHg 56%
19:00 +19°C° 0 mm 2 mps 754 mmHg 60%
20:00 +18°C° 0 mm 2 mps 754 mmHg 65%
21:00 +18°C° 0 mm 1 mps 755 mmHg 69%
22:00 +15°C° 0 mm 1 mps 755 mmHg 71%
23:00 +14°C° 0 mm 1 mps 756 mmHg 73%

18 June, Friday

Time Temperature Precipitation Wind Pressure Humidity
00:00 +13°C° 0 mm 2 mps 756 mmHg 75%
01:00 +12°C° 0 mm 2 mps 756 mmHg 75%
02:00 +12°C° 0 mm 2 mps 757 mmHg 76%
03:00 +11°C° 0 mm 1 mps 757 mmHg 76%
04:00 +12°C° 0 mm 1 mps 758 mmHg 73%
05:00 +14°C° 0 mm 1 mps 758 mmHg 69%
06:00 +15°C° 0 mm 1 mps 758 mmHg 65%
07:00 +18°C° 0 mm 1 mps 759 mmHg 58%
08:00 +19°C° 0 mm 1 mps 759 mmHg 52%
09:00 +21°C° 0 mm 1 mps 759 mmHg 45%
10:00 +22°C° 0 mm 1 mps 759 mmHg 41%
11:00 +23°C° 0 mm 1 mps 759 mmHg 38%
12:00 +23°C° 0 mm 1 mps 759 mmHg 34%
13:00 +24°C° 0 mm 2 mps 759 mmHg 34%
14:00 +24°C° 0 mm 2 mps 759 mmHg 35%
15:00 +24°C° 0 mm 2 mps 758 mmHg 35%
16:00 +24°C° 0 mm 1 mps 758 mmHg 42%
17:00 +23°C° 0 mm 1 mps 758 mmHg 49%
18:00 +23°C° 0 mm 1 mps 758 mmHg 55%
19:00 +21°C° 0 mm 1 mps 758 mmHg 58%
20:00 +19°C° 0 mm 1 mps 758 mmHg 61%
21:00 +17°C° 0 mm 2 mps 758 mmHg 64%
22:00 +16°C° 0 mm 2 mps 758 mmHg 66%
23:00 +16°C° 0 mm 2 mps 758 mmHg 68%

19 June, Saturday

Time Temperature Precipitation Wind Pressure Humidity
00:00 +15°C° 0 mm 2 mps 758 mmHg 70%
01:00 +15°C° 0 mm 2 mps 758 mmHg 74%
02:00 +15°C° 0 mm 2 mps 758 mmHg 78%
03:00 +14°C° 0 mm 2 mps 758 mmHg 82%
04:00 +16°C° 0 mm 2 mps 758 mmHg 79%
05:00 +17°C° 0 mm 3 mps 758 mmHg 77%
06:00 +19°C° 0 mm 3 mps 758 mmHg 74%
07:00 +21°C° 0 mm 4 mps 758 mmHg 68%
08:00 +23°C° 0 mm 4 mps 757 mmHg 61%
09:00 +26°C° 0 mm 4 mps 757 mmHg 54%
10:00 +27°C° 0 mm 5 mps 757 mmHg 51%
11:00 +28°C° 0 mm 5 mps 756 mmHg 47%
12:00 +30°C° 0 mm 5 mps 756 mmHg 43%
13:00 +30°C° 0 mm 5 mps 755 mmHg 43%
14:00 +30°C° 0 mm 5 mps 755 mmHg 42%
15:00 +32°C° 0 mm 5 mps 755 mmHg 42%
16:00 +30°C° 0 mm 5 mps 755 mmHg 46%
17:00 +29°C° 0 mm 5 mps 754 mmHg 49%
18:00 +28°C° 0 mm 5 mps 754 mmHg 53%
19:00 +27°C° 0 mm 4 mps 755 mmHg 58%
20:00 +25°C° 0 mm 4 mps 755 mmHg 62%
21:00 +23°C° 0 mm 4 mps 755 mmHg 67%
22:00 +22°C° 0 mm 3 mps 755 mmHg 71%
23:00 +21°C° 0 mm 3 mps 755 mmHg 75%

20 June, Sunday

Time Temperature Precipitation Wind Pressure Humidity
00:00 +20°C° 0 mm 3 mps 755 mmHg 79%
01:00 +19°C° 0 mm 3 mps 755 mmHg 84%
02:00 +18°C° 0 mm 2 mps 756 mmHg 88%
03:00 +17°C° 0 mm 2 mps 756 mmHg 93%
04:00 +18°C° 0 mm 2 mps 756 mmHg 88%
05:00 +19°C° 0 mm 2 mps 756 mmHg 83%
06:00 +21°C° 0 mm 2 mps 756 mmHg 79%
07:00 +23°C° 0 mm 1 mps 756 mmHg 72%
08:00 +25°C° 0 mm 1 mps 756 mmHg 66%
09:00 +26°C° 0 mm 1 mps 756 mmHg 60%
10:00 +27°C° 0 mm 1 mps 756 mmHg 58%
11:00 +28°C° 0 mm 2 mps 756 mmHg 56%
12:00 +28°C° 0 mm 2 mps 756 mmHg 54%
13:00 +29°C° 0 mm 2 mps 756 mmHg 53%
14:00 +29°C° 0 mm 2 mps 756 mmHg 53%
15:00 +29°C° 0 mm 2 mps 756 mmHg 53%
16:00 +28°C° 0 mm 2 mps 756 mmHg 57%
17:00 +28°C° 0 mm 2 mps 755 mmHg 62%
18:00 +27°C° 0 mm 1 mps 755 mmHg 67%
19:00 +25°C° 0.7 mm 1 mps 755 mmHg 76%
20:00 +23°C° 0.7 mm 1 mps 755 mmHg 84%
21:00 +21°C° 0.7 mm 1 mps 755 mmHg 93%
22:00 +21°C° 0.2 mm 1 mps 755 mmHg 94%
23:00 +19°C° 0.2 mm 2 mps 755 mmHg 95%
Show more